TimeCDT,TemperatureF,Dew PointF,Humidity,Sea Level PressureIn,VisibilityMPH,Wind Direction,Wind SpeedMPH,Gust SpeedMPH,PrecipitationIn,Events,Conditions,WindDirDegrees,DateUTC
2:53 AM,59.0,48.0,67,30.08,10.0,ESE,4.6,-,N/A,,Clear,110,2013-06-19 07:53:00
4:53 AM,57.0,48.0,72,30.07,10.0,SE,3.5,-,N/A,,Clear,140,2013-06-19 09:53:00
5:53 AM,57.9,48.9,72,30.09,10.0,SSE,8.1,-,N/A,,Clear,150,2013-06-19 10:53:00
6:53 AM,60.1,48.0,64,30.10,10.0,SE,6.9,-,N/A,,Clear,130,2013-06-19 11:53:00
7:53 AM,64.0,46.9,54,30.12,10.0,South,10.4,-,N/A,,Clear,170,2013-06-19 12:53:00
8:53 AM,66.9,48.0,51,30.11,10.0,South,11.5,-,N/A,,Clear,170,2013-06-19 13:53:00
9:53 AM,70.0,50.0,49,30.10,10.0,South,9.2,-,N/A,,Scattered Clouds,180,2013-06-19 14:53:00
10:53 AM,73.0,52.0,48,30.09,10.0,South,5.8,-,N/A,,Clear,190,2013-06-19 15:53:00
11:53 AM,75.0,53.1,46,30.07,10.0,South,3.5,-,N/A,,Clear,190,2013-06-19 16:53:00
12:53 PM,78.1,55.0,45,30.06,10.0,South,6.9,-,N/A,,Partly Cloudy,190,2013-06-19 17:53:00
1:53 PM,80.1,55.9,43,30.04,10.0,South,8.1,16.1,N/A,,Clear,180,2013-06-19 18:53:00
2:53 PM,81.0,57.0,44,30.03,10.0,South,9.2,-,N/A,,Clear,190,2013-06-19 19:53:00
3:53 PM,81.0,57.0,44,30.02,10.0,South,9.2,-,N/A,,Clear,190,2013-06-19 20:53:00
4:53 PM,81.0,57.0,44,30.02,10.0,SSW,8.1,-,N/A,,Clear,210,2013-06-19 21:53:00
5:53 PM,81.0,57.0,44,29.99,10.0,SSW,9.2,-,N/A,,Clear,200,2013-06-19 22:53:00
6:53 PM,80.1,57.9,47,29.99,10.0,SSE,10.4,-,N/A,,Clear,160,2013-06-19 23:53:00
7:53 PM,78.1,57.9,50,30.00,10.0,SE,8.1,-,N/A,,Clear,140,2013-06-20 00:53:00
8:53 PM,75.0,57.9,55,29.99,10.0,SE,5.8,-,N/A,,Clear,140,2013-06-20 01:53:00
9:53 PM,72.0,59.0,64,30.01,10.0,ESE,3.5,-,N/A,,Clear,120,2013-06-20 02:53:00
10:53 PM,71.1,59.0,66,30.02,10.0,ESE,4.6,-,N/A,,Clear,120,2013-06-20 03:53:00
11:53 PM,68.0,59.0,73,30.02,10.0,ESE,5.8,-,N/A,,Clear,120,2013-06-20 04:53:00